Погода в Чёрной

Украина / Хмельницкая область     49°52′28″N   27°26′28″E
темп.,
°C
ветер,
м/с
пор.,
м/с
влажн.,
%
обл.,
%
осадки,
мм/ч
давл.,
гПа
погр.,
м
26 июля, пн
пн2600:00+20юв3764100 0.0 1019147
03:00+17юв357163 0.0 101973
06:00+16юв47738 0.0 1019100
09:00+21юв596430 0.0 1019339
12:00+25ююв685318 0.0 1019892
15:00+28ю674339 0.0 10182065
18:00+25ююв365895 0.0 1017249
21:00+21юв41071100 0.0 1018180
27 июля, вт
вт2700:00+19юв410675 0.0 1018175
03:00+18юв4106859 0.0 1018172
06:00+17ююв412690 0.0 1018206
09:00+22ююв51071100 0.7 1017356
12:00+23ю596962 3.0 1017416
15:00+29ю675075 3.0 10161105
18:00+28ю455879 0.0 1015670
21:00+23ю41076100 0.0 1014204
28 июля, ср
ср2800:00+20ююз4108412 0.4 1015140
03:00+19зюз39903 0.8 1015159
06:00+18з34955 0.0 101488
09:00+22ссз458290 0.6 1015368
12:00+26зсз346127 0.0 10151172
15:00+28сз345137 0.0 10141562
18:00+28сз23505 0.0 10141617
21:00+23сз22660 0.0 101412
29 июля, чт
чт2900:00+21ююв22755 0.0 101411
03:00+20ююв238261 0.0 101328
06:00+20ю347550 0.1 101392
09:00+23ю45765 0.9 1012299
12:00+28зюз445413 0.0 10121120
15:00+30з45465 0.0 10111927
18:00+28з67591 0.0 10111389
21:00+23сз5107464 0.0 1013368
30 июля, пт
пт3000:00+19з4793100 0.0 1013152
03:00+18зсз3696100 0.0 1013132
06:00+17зсз35960 0.0 1013115
09:00+22сз34750 0.0 1013462
12:00+26зсз23550 0.0 10121153
15:00+28з23420 0.0 10111441
18:00+29зюз13420 0.0 10101558
21:00+23ююв44651 0.0 100952